Overview Statistics Trail Chart Weather Telemetry Raw packets
 

This is the latest recevied weather packets stored in our database for station/object LKCS. If no packets are shown the sender has not sent any weather packets the latest 10 day(s).

<< 12 13 14 15 16 17 18 >>
Time Temp. Humidity Pressure Rain* Wind** Luminosity Snow
1788211984 17.78° C 63% 1019 hPa - - - -
1788210186 17.22° C 67% 1019 hPa - - - -
1788208357 17.22° C 67% 1018 hPa - - - -
1788206585 17.78° C 63% 1018 hPa - - - -
1788204751 17.78° C 63% 1017 hPa - - - -
1788202959 18.89° C 59% 1017 hPa - - - -
1788201185 21.11° C 49% 1017 hPa - - - -
1788199359 21.11° C 49% 1016 hPa - - - -
1788197584 21.11° C 49% 1016 hPa - - - -
1788195787 22.78° C 40% 1016 hPa - - - -
1788193958 23.89° C 41% 1016 hPa - - - -
1788192187 25° C 38% 1016 hPa - - - -
1788190385 25° C 38% 1016 hPa - - - -
1788188586 25° C 38% 1016 hPa - - - -
1788186785 26.11° C 39% 1016 hPa - - - -
1788184994 26.11° C 41% 1016 hPa - - - -
1788183185 25° C 38% 1017 hPa - - - -
1788181364 23.89° C 41% 1017 hPa - - - -
1788180017 25° C 44% 1017 hPa - - - -
1788179565 26.11° C 36% 1017 hPa - - - -
1788177793 25° C 44% 1017 hPa - - - -
1788176345 25° C 47% 1017 hPa - - - -
1788175985 25° C 47% 1017 hPa - - - -
1788175265 23.89° C 50% 1017 hPa - - - -
1788174165 23.89° C 53% 1017 hPa - - - -

* Rain since midnight (hover to see other rain measurements)
** Current wind speed in m/s (hover to see current wind gust speed)